[[{"header":{"parameterUnit":"m.s-1","parameterCategory":1,"la1":30.2991,"la2":30.254,"lo1":-89.0895,"lo2":-89.0444,"dy":0.0017,"dx":0.0017,"nx":28,"ny":28,"refTime":"2025-04-08T03:00:00:Z","depth":0,"parameterNumber":2,"parameterNumberName":"U-component_of_WINDS"},"data":[0,0,0,0,0,0,0,0,0,0,0,0,0,0,0,0,0,0,0,0,0,0,0,0,0,0,0,0,0,0,0,0,0,0,0,0,0,0,0,0,0,0,0,0,0,0,0,0,0,0,0,0,0,0,0,0,0,0,1.3685,1.3685,0,1.3625,1.3624,1.3624,1.3608,1.3608,1.3609,1.3609,1.3544,1.3542,1.3539,0,0,0,0,0,0,0,0,0,0,0,0,0,1.3783,1.3781,1.3685,1.3685,1.3684,1.3625,1.3624,1.3624,1.3608,1.3608,1.3609,1.3609,1.3544,1.3542,1.3539,0,0,0,0,0,0,0,0,0,0,0,0,0,1.3733,1.378,1.3685,1.3669,1.3667,1.3625,1.3624,1.3623,1.3608,1.3608,1.3609,1.3609,1.3545,1.3542,1.3539,1.3508,0,0,1.3529,1.3528,0,0,0,0,0,0,0,0,1.3736,1.373,1.3672,1.367,1.3668,1.3625,1.3635,1.3585,1.3608,1.363,1.3609,1.361,1.357,1.3565,1.3552,1.3505,1.3502,1.3529,1.3527,1.3526,1.3525,0,0,0,0,0,0,0,1.3739,1.3732,1.3661,1.3671,1.3669,1.3663,1.3657,1.3625,1.3597,1.3628,1.3627,1.362,1.3569,1.3555,1.355,1.3501,1.3529,1.3526,1.3524,1.3523,1.3425,1.3424,0,0,0,0,0,0,1.3746,1.3735,1.3663,1.366,1.3704,1.3661,1.3654,1.3638,1.3598,1.3592,1.362,1.362,1.356,1.3554,1.3548,1.3508,1.3526,1.3523,1.3521,1.3425,1.3424,1.3424,0,0,0,0,0,0,1.3748,1.374,1.3666,1.3697,1.3687,1.3659,1.3641,1.3636,1.3623,1.3591,1.3586,1.3611,1.356,1.3552,1.3518,1.3506,1.3521,1.3519,1.3426,1.3425,1.3424,1.3429,0,0,0,0,0,0,1.3751,1.3741,1.373,1.3697,1.3685,1.3638,1.364,1.3635,1.3618,1.3617,1.3582,1.3577,1.356,1.3523,1.3515,1.3502,1.3516,1.3427,1.3426,1.3424,1.343,1.3428,1.3427,0,0,0,0,0,1.3755,1.3733,1.3729,1.3721,1.3671,1.3637,1.3631,1.3613,1.3617,1.3605,1.3585,1.3578,1.3509,1.352,1.3511,1.3496,1.3428,1.3426,1.3425,1.343,1.3428,1.3427,0,0,0,0,0,0,1.3764,1.3728,1.3724,1.3691,1.3668,1.3635,1.3619,1.3612,1.3586,1.3586,1.3565,1.3557,1.3524,1.3507,1.3519,1.3463,1.3468,1.3465,1.3475,1.3473,1.3472,1.3476,1.3514,0,0,0,0,0,1.3763,1.3739,1.3709,1.3683,1.3671,1.3647,1.3632,1.3621,1.3595,1.3584,1.3562,1.3536,1.3508,1.349,1.3463,1.3428,1.3419,1.3413,1.3412,1.3411,1.3407,1.3385,1.3382,1.3418,1.3418,1.3418,0,0,1.3758,1.3736,1.3723,1.3684,1.3664,1.3639,1.3639,1.3612,1.3593,1.358,1.3546,1.3529,1.3498,1.3463,1.3446,1.3447,1.3395,1.3409,1.3408,1.3405,1.3383,1.338,1.3377,1.3417,1.3417,1.3418,0,0,1.3738,1.372,1.3695,1.3676,1.3647,1.3631,1.3625,1.3593,1.3581,1.3548,1.3537,1.3513,1.3466,1.3444,1.3427,1.3399,1.3391,1.3391,1.3382,1.3361,1.3358,1.3356,1.3343,1.334,1.3388,1.3388,1.3388,0,1.3736,1.3699,1.3683,1.3657,1.364,1.3628,1.3602,1.3584,1.3547,1.3534,1.3537,1.3478,1.3456,1.3415,1.3408,1.3395,1.3386,1.3393,1.336,1.3357,1.3355,1.3343,1.3338,1.3388,1.3388,1.3388,1.3388,0,1.3698,1.3672,1.3656,1.3621,1.3602,1.3576,1.3555,1.3537,1.3528,1.3512,1.3476,1.3451,1.3418,1.3407,1.3398,1.3364,1.3366,1.3365,1.3369,1.3351,1.334,1.3335,1.3388,1.3388,1.3388,1.3388,0,0,1.368,1.3638,1.3632,1.3615,1.3582,1.3561,1.3534,1.3503,1.3488,1.3463,1.3438,1.3399,1.3398,1.3378,1.3366,1.3348,1.3325,1.3349,1.3348,1.3344,1.3284,1.3284,1.3279,1.332,1.3319,1.3319,1.3286,0,1.3654,1.3607,1.3592,1.3552,1.3526,1.3515,1.3492,1.3468,1.3452,1.3427,1.3409,1.3381,1.3383,1.337,1.3352,1.3332,1.3312,1.3334,1.3295,1.3294,1.3301,1.3273,1.3273,1.3243,1.3282,1.3281,1.328,0,1.3617,1.3592,1.355,1.3519,1.3508,1.3487,1.3457,1.3434,1.3407,1.3396,1.3375,1.3364,1.3334,1.3341,1.3298,1.3313,1.3297,1.3284,1.3283,1.3276,1.3285,1.3264,1.3233,1.3228,1.3274,1.3274,1.3275,0,1.3606,1.3562,1.3531,1.3518,1.3481,1.3467,1.3451,1.3424,1.3406,1.3379,1.3367,1.3337,1.3319,1.3296,1.3276,1.3284,1.3234,1.3241,1.3223,1.3223,1.3211,1.3212,1.3175,1.3204,1.3205,1.3205,1.3205,0,1.3578,1.3552,1.3525,1.3506,1.3476,1.3458,1.3429,1.3412,1.3388,1.3364,1.3353,1.333,1.3307,1.3281,1.3266,1.3231,1.3224,1.3213,1.3209,1.3213,1.3214,1.32,1.3201,1.3203,1.3204,1.3204,1.3204,0,1.356,1.3541,1.3506,1.3475,1.3466,1.3445,1.3418,1.3398,1.3382,1.3351,1.3343,1.3317,1.3286,1.3265,1.3224,1.3214,1.3176,1.3174,1.3185,1.3183,1.3166,1.3167,1.3117,1.3108,1.3146,1.3145,1.3145,0,1.3542,1.3521,1.3488,1.3472,1.3456,1.343,1.3411,1.3393,1.3374,1.3341,1.3324,1.3293,1.3266,1.3216,1.3192,1.3161,1.3156,1.3141,1.3151,1.3155,1.3153,1.3154,1.3151,1.3139,1.3138,1.3138,1.3138,0,1.3511,1.3503,1.3477,1.3448,1.3427,1.3403,1.3379,1.3366,1.3343,1.3322,1.329,1.327,1.3229,1.3196,1.3163,1.3145,1.3137,1.3135,1.3129,1.3131,1.3138,1.3132,1.3179,1.3136,1.3136,1.3136,1.3136,1.3136,1.3491,1.3471,1.3445,1.3416,1.3397,1.3374,1.3353,1.3335,1.3309,1.3274,1.3265,1.3232,1.3203,1.3158,1.3139,1.3112,1.3113,1.3105,1.3102,1.31,1.3098,1.3145,1.3106,1.3106,1.3106,1.3106,1.3106,0,1.3457,1.344,1.3414,1.3381,1.3358,1.3354,1.3327,1.3308,1.3279,1.3254,1.3228,1.3191,1.3159,1.3134,1.3101,1.3084,1.3079,1.3076,1.3075,1.3071,1.31,1.3108,1.308,1.308,1.308,1.308,1.308,1.308,1.3437,1.3404,1.3393,1.3349,1.3331,1.3299,1.3283,1.3262,1.3242,1.3201,1.3175,1.316,1.3134,1.3099,1.3069,1.3063,1.305,1.3047,1.3039,1.3066,1.3069,1.3072,1.3079,1.3045,1.3045,1.3011,1.3011,1.3011]},{"header":{"parameterUnit":"m.s-1","parameterCategory":1,"la1":30.2991,"la2":30.254,"lo1":-89.0895,"lo2":-89.0444,"dy":0.0017,"dx":0.0017,"nx":28,"ny":28,"refTime":"2025-04-08T03:00:00:Z","depth":0,"parameterNumber":3,"parameterNumberName":"V-component_of_WINDS"},"data":[0,0,0,0,0,0,0,0,0,0,0,0,0,0,0,0,0,0,0,0,0,0,0,0,0,0,0,0,0,0,0,0,0,0,0,0,0,0,0,0,0,0,0,0,0,0,0,0,0,0,0,0,0,0,0,0,0,0,-4.8299,-4.8301,0,-4.8487,-4.8489,-4.8491,-4.844,-4.8437,-4.8433,-4.8429,-4.862,-4.8628,-4.8637,0,0,0,0,0,0,0,0,0,0,0,0,0,-4.7893,-4.7901,-4.8299,-4.8301,-4.8303,-4.8487,-4.8489,-4.8492,-4.8441,-4.8436,-4.8432,-4.8428,-4.8617,-4.8627,-4.8638,0,0,0,0,0,0,0,0,0,0,0,0,0,-4.8074,-4.7903,-4.8298,-4.83,-4.8302,-4.8486,-4.8489,-4.8492,-4.8442,-4.8436,-4.8431,-4.8425,-4.8614,-4.8626,-4.8639,-4.8832,0,0,-4.8679,-4.8684,0,0,0,0,0,0,0,0,-4.8064,-4.8089,-4.8297,-4.83,-4.8303,-4.8434,-4.8416,-4.8606,-4.8443,-4.8389,-4.8429,-4.8423,-4.8563,-4.8579,-4.8627,-4.8841,-4.8849,-4.868,-4.8688,-4.8693,-4.8697,0,0,0,0,0,0,0,-4.8051,-4.808,-4.8373,-4.8301,-4.8304,-4.8291,-4.831,-4.8452,-4.8505,-4.8393,-4.839,-4.8413,-4.8563,-4.8615,-4.8631,-4.8852,-4.8679,-4.8691,-4.8699,-4.8704,-4.9233,-4.9239,0,0,0,0,0,0,-4.8037,-4.807,-4.8367,-4.8379,-4.8167,-4.8303,-4.8325,-4.8398,-4.8504,-4.8514,-4.8418,-4.841,-4.8596,-4.8616,-4.8638,-4.887,-4.8693,-4.8705,-4.8712,-4.9226,-4.9234,-4.9241,0,0,0,0,0,0,-4.8028,-4.8064,-4.8359,-4.8224,-4.826,-4.8316,-4.8399,-4.8405,-4.8456,-4.8522,-4.8531,-4.8461,-4.8592,-4.862,-4.8784,-4.8876,-4.8711,-4.8723,-4.9219,-4.9229,-4.9237,-4.9337,0,0,0,0,0,0,-4.8017,-4.8061,-4.8136,-4.8226,-4.8268,-4.8504,-4.8404,-4.8412,-4.8479,-4.8471,-4.8565,-4.8575,-4.859,-4.8765,-4.8797,-4.8891,-4.8733,-4.9211,-4.9223,-4.9234,-4.9326,-4.9349,-4.9369,0,0,0,0,0,-4.8003,-4.8156,-4.814,-4.8176,-4.8362,-4.8509,-4.8533,-4.8547,-4.8487,-4.8562,-4.8604,-4.8572,-4.8861,-4.8782,-4.8818,-4.8917,-4.9205,-4.922,-4.9234,-4.9317,-4.9345,-4.9368,0,0,0,0,0,0,-4.8075,-4.8168,-4.8151,-4.8338,-4.8416,-4.85,-4.8595,-4.8577,-4.8673,-4.8661,-4.8674,-4.8695,-4.8864,-4.8907,-4.8818,-4.9109,-4.9024,-4.9046,-4.9075,-4.9102,-4.9123,-4.9109,-4.8743,0,0,0,0,0,-4.8112,-4.8225,-4.83,-4.8457,-4.8498,-4.854,-4.8604,-4.8609,-4.869,-4.8722,-4.8776,-4.8856,-4.8964,-4.9035,-4.9139,-4.9332,-4.9351,-4.9417,-4.9439,-4.9456,-4.9475,-4.958,-4.961,-4.9288,-4.9287,-4.9287,0,0,-4.8191,-4.8256,-4.8326,-4.8474,-4.8535,-4.865,-4.8568,-4.8694,-4.8779,-4.8741,-4.89,-4.8942,-4.9032,-4.9211,-4.9293,-4.9252,-4.9568,-4.9474,-4.9487,-4.9497,-4.9597,-4.9628,-4.9655,-4.9297,-4.9295,-4.9294,0,0,-4.8394,-4.8455,-4.8593,-4.8656,-4.8749,-4.8776,-4.8809,-4.8897,-4.8924,-4.9083,-4.9057,-4.9158,-4.9345,-4.941,-4.9467,-4.9694,-4.9669,-4.9727,-4.9839,-4.9941,-4.9966,-4.9989,-5.0069,-5.0098,-4.9746,-4.9746,-4.9746,0,-4.8481,-4.8654,-4.8666,-4.8794,-4.886,-4.8831,-4.897,-4.903,-4.9153,-4.9198,-4.9151,-4.9385,-4.9443,-4.9637,-4.9692,-4.9739,-4.9777,-4.9717,-4.9962,-4.9984,-5.0006,-5.0083,-5.0113,-4.9753,-4.9752,-4.9751,-4.975,0,-4.8756,-4.8876,-4.8976,-4.9096,-4.9172,-4.9305,-4.9337,-4.9413,-4.941,-4.9442,-4.9604,-4.9673,-4.9789,-4.9835,-4.9834,-5.003,-5.0001,-4.9958,-4.9873,-5.0043,-5.0115,-5.0145,-4.9762,-4.976,-4.9758,-4.9756,0,0,-4.901,-4.9134,-4.9171,-4.9225,-4.9325,-4.9418,-4.9549,-4.9664,-4.9729,-4.9814,-4.9924,-5.0082,-5.0043,-5.0108,-5.0113,-5.0202,-5.0377,-5.0148,-5.015,-5.0188,-5.0597,-5.0629,-5.0663,-5.0361,-5.0367,-5.0371,-5.0589,0,-4.9222,-4.9454,-4.9468,-4.9678,-4.979,-4.9763,-4.9878,-4.9951,-4.9984,-5.0083,-5.0118,-5.0231,-5.017,-5.0209,-5.0296,-5.0338,-5.046,-5.0322,-5.0463,-5.0468,-5.0442,-5.0701,-5.0736,-5.0939,-5.0618,-5.0623,-5.0626,0,-4.9501,-4.9595,-4.9816,-4.99,-4.9948,-5.005,-5.0156,-5.0251,-5.0333,-5.0351,-5.0424,-5.0416,-5.055,-5.046,-5.0644,-5.055,-5.0608,-5.0637,-5.0645,-5.0659,-5.0558,-5.0723,-5.1004,-5.1035,-5.0671,-5.0668,-5.0664,0,-4.9664,-4.9846,-5.0002,-5.0048,-5.0151,-5.0224,-5.027,-5.0347,-5.0414,-5.0507,-5.0551,-5.0657,-5.0716,-5.0798,-5.0818,-5.0751,-5.1002,-5.0914,-5.102,-5.102,-5.1075,-5.1071,-5.137,-5.1112,-5.1112,-5.1111,-5.111,0,-4.99,-5.0036,-5.0077,-5.0173,-5.0324,-5.0339,-5.0488,-5.0529,-5.0598,-5.0701,-5.0684,-5.0781,-5.0802,-5.0903,-5.092,-5.107,-5.1096,-5.1114,-5.1117,-5.1116,-5.1114,-5.1154,-5.1141,-5.1119,-5.1117,-5.1116,-5.1114,0,-5.0109,-5.0141,-5.0309,-5.0392,-5.0416,-5.0525,-5.0595,-5.0687,-5.0717,-5.0848,-5.0879,-5.0927,-5.1044,-5.1073,-5.1213,-5.1224,-5.1402,-5.1391,-5.1374,-5.1374,-5.1479,-5.1468,-5.1814,-5.1861,-5.1572,-5.1575,-5.1577,0,-5.0257,-5.0361,-5.0456,-5.0524,-5.0573,-5.0683,-5.0752,-5.0769,-5.0842,-5.0944,-5.1023,-5.1139,-5.1232,-5.1421,-5.1468,-5.1575,-5.1567,-5.168,-5.1583,-5.1578,-5.1569,-5.1563,-5.1573,-5.1699,-5.1702,-5.1705,-5.1707,0,-5.0517,-5.0528,-5.0628,-5.0735,-5.0818,-5.0903,-5.0984,-5.104,-5.1069,-5.1151,-5.1272,-5.1345,-5.1487,-5.1603,-5.171,-5.1756,-5.1737,-5.1737,-5.1768,-5.1768,-5.1754,-5.1763,-5.1425,-5.1729,-5.1727,-5.1725,-5.1724,-5.1723,-5.07,-5.0792,-5.0872,-5.0985,-5.1048,-5.1124,-5.1214,-5.1255,-5.1356,-5.1475,-5.1479,-5.161,-5.1688,-5.1831,-5.1883,-5.1985,-5.1951,-5.1994,-5.2006,-5.2016,-5.2026,-5.1737,-5.2005,-5.2004,-5.2004,-5.2003,-5.2003,0,-5.096,-5.101,-5.1114,-5.1227,-5.1316,-5.129,-5.1378,-5.1453,-5.1569,-5.1645,-5.1737,-5.1875,-5.1986,-5.2042,-5.2152,-5.2223,-5.2216,-5.2251,-5.2246,-5.2257,-5.2051,-5.2014,-5.2254,-5.2254,-5.2254,-5.2254,-5.2254,-5.2254,-5.1105,-5.1258,-5.1279,-5.1463,-5.1512,-5.164,-5.1693,-5.1762,-5.1823,-5.1978,-5.207,-5.2106,-5.2173,-5.2288,-5.2388,-5.2401,-5.2443,-5.2482,-5.2491,-5.2297,-5.2272,-5.2247,-5.2212,-5.2491,-5.2491,-5.2689,-5.2691,-5.2692]}]]